GFSMW_850_temp_180.txt.gz
Temp
12 9 8 7 8 10 10 9 9 8 7 6 4 4 3 6 6 6 6 6 6 6 6 6 6 6 6 6 7 6 6 5 7 4 5 4 3 4 3 3 2 5 4
10 8 7 6 8 9 9 9 7 7 5 4 4 4 4 5 5 5 5 6 6 6 5 5 5 5 5 5 5 5 3 2 5 4 4 7 5 3 2 2 2 4 1
10 7 6 6 6 8 9 7 6 6 5 5 6 5 5 4 3 3 4 5 5 5 5 4 4 4 4 3 3 3 2 1 0 2 1 4 6 2 3 2 1 2 -0
10 8 6 6 6 6 7 6 5 5 6 6 3 3 4 3 1 2 4 4 4 4 3 3 3 3 1 1 1 1 -1 -1 -1 -0 -1 -2 -2 0 3 3 1 -0 -0
11 9 7 6 6 5 5 4 5 5 6 5 3 2 2 2 2 3 3 3 3 3 3 2 2 2 1 -0 -0 -1 -2 -3 -3 -3 -3 -2 -1 -2 -1 2 1 1 -0
10 9 7 6 6 4 4 4 5 6 6 5 4 2 2 1 1 0 -0 1 2 2 2 1 1 0 0 -0 -1 -2 -2 -3 -4 -4 -4 -5 -4 -4 -4 -2 -1 -1 -1
8 8 7 7 5 4 3 3 4 4 4 4 3 2 2 1 0 -0 -1 -0 0 1 1 0 0 -0 -1 -1 -1 -2 -3 -3 -5 -5 -5 -6 -5 -5 -7 -6 -4 -3 -0
7 7 7 6 5 4 3 3 3 3 3 3 2 2 1 -1 0 1 0 1 -0 0 0 -0 -1 -2 -1 -1 -2 -2 -3 -4 -5 -6 -6 -6 -6 -5 -7 -7 -7 -3 0
7 7 7 6 4 3 3 3 2 2 3 3 1 1 1 1 1 1 1 0 0 -0 -0 -2 -2 -2 -2 -2 -2 -3 -5 -5 -6 -6 -6 -6 -7 -6 -7 -7 -8 -7 -4
7 6 6 5 4 3 2 2 3 3 3 1 1 1 1 1 0 0 0 -0 -0 -1 -2 -2 -2 -2 -2 -2 -4 -5 -5 -6 -6 -6 -7 -7 -6 -6 -6 -7 -7 -6 -7
7 5 4 3 2 2 1 3 3 2 2 1 1 1 0 -0 -0 -0 -1 -0 -1 -2 -3 -2 -3 -3 -3 -4 -4 -4 -5 -5 -6 -7 -7 -7 -7 -6 -6 -7 -6 -6 -6
6 5 3 4 3 2 2 2 3 2 2 1 0 -1 -1 -1 -1 -0 -1 -1 -1 -2 -2 -3 -3 -3 -3 -3 -3 -4 -4 -4 -6 -7 -7 -7 -7 -7 -7 -7 -7 -7 -7
7 6 3 5 4 4 3 3 2 2 1 0 -1 -1 -1 -2 -1 -1 -2 -1 -2 -3 -3 -4 -4 -3 -3 -3 -3 -3 -4 -5 -5 -7 -8 -7 -7 -7 -7 -7 -7 -7 -7
6 7 5 6 4 3 2 2 2 2 1 -0 -1 -1 -1 -2 -2 -2 -2 -2 -3 -3 -3 -3 -3 -3 -3 -3 -3 -4 -5 -5 -4 -5 -5 -5 -5 -5 -5 -8 -8 -8 -7
8 6 8 6 4 3 2 1 1 2 -0 -1 -2 -1 -2 -2 -3 -2 -2 -2 -3 -3 -3 -3 -3 -3 -4 -3 -3 -4 -4 -5 -5 -5 -5 -5 -5 -5 -6 -6 -6 -7 -8
8 6 4 4 3 2 1 1 1 0 -2 -2 -2 -4 -4 -3 -3 -3 -3 -3 -4 -3 -3 -3 -3 -4 -4 -3 -3 -4 -4 -4 -4 -5 -5 -6 -6 -6 -6 -6 -7 -7 -7
8 6 4 4 2 -0 -0 -1 -1 -2 -3 -3 -4 -5 -5 -4 -3 -4 -4 -4 -4 -4 -3 -3 -4 -4 -4 -3 -3 -3 -4 -4 -4 -5 -5 -5 -5 -6 -6 -7 -7 -7 -8
7 5 4 2 0 -1 -1 -1 -2 -3 -3 -3 -4 -5 -5 -5 -5 -6 -6 -6 -6 -5 -5 -4 -4 -4 -4 -3 -3 -4 -4 -5 -5 -5 -6 -6 -6 -6 -7 -7 -7 -8 -8
5 5 4 2 0 -1 -1 -1 -2 -3 -4 -3 -4 -5 -5 -5 -5 -6 -6 -6 -6 -6 -6 -5 -5 -6 -4 -4 -4 -4 -6 -5 -5 -6 -6 -6 -6 -7 -8 -8 -8 -8 -9
5 4 3 2 -0 -1 -2 -2 -3 -3 -3 -4 -4 -4 -5 -5 -5 -5 -6 -6 -6 -6 -7 -5 -5 -5 -4 -4 -4 -5 -6 -7 -8 -8 -7 -6 -7 -7 -8 -8 -8 -9 -9
4 4 3 1 -1 -2 -2 -3 -3 -1 -1 -3 -4 -4 -5 -5 -5 -5 -6 -6 -6 -7 -7 -6 -6 -5 -5 -4 -4 -5 -5 -6 -7 -7 -8 -8 -7 -7 -8 -8 -9 -9 -9
4 2 1 -0 -2 -3 -3 -2 -1 -1 -2 -3 -4 -5 -5 -5 -5 -5 -6 -6 -6 -7 -7 -7 -7 -6 -5 -5 -4 -5 -5 -6 -6 -7 -7 -7 -7 -8 -8 -9 -10 -10 -10
2 1 0 -1 -2 -3 -2 -0 -1 -1 -2 -3 -3 -3 -4 -5 -6 -6 -6 -6 -6 -7 -7 -6 -5 -5 -5 -5 -5 -5 -5 -6 -6 -7 -7 -8 -8 -9 -9 -10 -10 -11 -11
3 1 -0 -1 -1 -1 -0 -0 -1 -1 -2 -3 -4 -4 -4 -5 -5 -6 -5 -5 -5 -6 -5 -5 -5 -5 -4 -5 -5 -5 -5 -6 -7 -8 -8 -9 -9 -10 -11 -11 -11 -11 -12
3 2 2 2 2 1 0 -0 -1 -1 -2 -3 -4 -5 -5 -5 -5 -5 -5 -5 -4 -4 -4 -4 -4 -4 -4 -4 -5 -5 -6 -7 -8 -9 -10 -11 -13 -14 -14 -14 -13 -13 -14
1 2 2 2 1 1 0 -1 -1 -2 -3 -5 -5 -5 -6 -6 -6 -6 -5 -5 -5 -5 -5 -5 -5 -5 -5 -5 -5 -6 -7 -8 -10 -10 -13 -13 -14 -14 -14 -15 -15 -15 -15

GFSMW_850_temp_183.txt.gz
Temp
16 14 12 11 11 9 9 8 7 6 6 6 6 6 6 4 3 4 6 6 6 6 6 3 4 4 3 5 6 6 4 4 5 6 7 7 5 5 5 4 3 2 3
16 13 11 10 9 8 8 8 7 7 7 7 7 6 5 4 3 3 5 6 6 6 5 5 4 5 2 3 4 5 4 4 3 3 5 8 7 5 5 4 3 2 2
16 12 10 9 8 8 7 7 7 6 7 6 5 4 4 4 3 3 2 5 5 5 5 5 5 3 2 1 2 3 1 2 2 1 2 5 7 5 5 4 2 2 1
16 13 10 8 8 8 8 8 7 6 6 6 5 5 6 6 4 3 2 3 5 5 5 4 3 2 -1 -0 -1 -0 -1 0 1 1 1 1 1 2 5 5 4 2 2
17 13 11 9 9 8 7 7 6 6 5 5 5 5 5 4 3 2 1 2 3 4 3 2 1 -0 -1 -1 -1 -2 -2 -1 -1 -1 -1 -1 1 -0 1 3 3 3 1
16 13 11 9 9 8 6 6 6 5 5 4 4 4 4 4 3 2 1 1 -0 -1 1 0 -0 -0 -0 -1 -2 -3 -2 -3 -2 -2 -2 -3 -3 -3 -3 -2 -0 -1 1
15 13 11 10 9 7 6 5 5 5 4 4 3 3 3 2 2 1 1 0 -0 -1 -1 -1 -1 -1 -1 -2 -3 -3 -2 -2 -3 -3 -3 -3 -4 -5 -5 -4 -3 -1 2
13 13 11 10 9 7 5 5 5 4 3 3 3 3 2 1 1 1 0 -0 -1 -2 -1 -1 -1 -1 -1 -2 -2 -3 -4 -4 -4 -4 -4 -3 -4 -5 -5 -4 -4 -2 2
12 12 11 10 9 7 6 5 5 4 3 2 2 2 1 0 -0 -1 -1 -1 -2 -1 -2 -2 -2 -1 -1 -2 -4 -4 -4 -4 -4 -4 -4 -4 -4 -4 -4 -4 -4 -4 -2
12 11 11 10 8 7 6 5 5 4 2 2 1 1 0 -0 -1 -1 -1 -2 -1 -3 -3 -3 -3 -3 -3 -4 -4 -4 -4 -4 -4 -4 -5 -4 -4 -4 -4 -4 -4 -4 -4
11 10 9 9 8 6 5 4 4 3 2 1 1 -0 -1 -1 -0 -1 -1 -3 -3 -3 -4 -4 -4 -4 -4 -4 -4 -4 -4 -4 -4 -5 -5 -5 -5 -4 -4 -4 -4 -4 -5
10 10 8 6 6 5 5 3 3 2 1 1 0 -1 -1 -1 -1 -1 -3 -3 -3 -4 -4 -4 -4 -4 -4 -5 -5 -5 -5 -5 -5 -5 -5 -5 -5 -5 -5 -5 -5 -5 -4
12 10 8 6 4 4 3 2 2 1 1 -0 -1 -1 -2 -2 -3 -3 -3 -4 -4 -4 -5 -5 -5 -4 -4 -5 -5 -5 -5 -5 -6 -6 -6 -5 -5 -6 -6 -5 -6 -5 -5
12 10 8 6 4 3 2 2 1 0 1 -1 -1 -2 -2 -3 -3 -4 -4 -4 -5 -5 -5 -5 -4 -2 -2 -4 -4 -6 -6 -5 -5 -5 -4 -3 -3 -3 -4 -6 -6 -6 -5
11 11 9 5 4 3 3 1 0 -0 -0 -1 -2 -2 -3 -3 -4 -4 -4 -5 -5 -3 -2 -3 -2 -2 -2 -3 -5 -6 -5 -6 -6 -6 -5 -4 -4 -4 -4 -4 -4 -4 -6
12 11 10 6 3 3 2 -0 -0 -0 -1 -2 -2 -2 -3 -4 -4 -4 -5 -5 -4 -3 -3 -2 -2 -2 -2 -2 -3 -3 -3 -3 -3 -4 -5 -4 -4 -4 -4 -5 -6 -5 -5
12 11 10 8 5 1 -0 -0 -0 -1 -1 -2 -2 -2 -3 -4 -4 -5 -5 -5 -5 -3 -2 -2 -2 -2 -2 -3 -3 -3 -3 -3 -3 -3 -4 -4 -4 -4 -5 -5 -6 -6 -7
11 10 9 7 5 3 0 0 0 -1 -1 -1 -2 -2 -3 -4 -4 -4 -5 -5 -5 -4 -3 -3 -3 -3 -3 -3 -3 -3 -3 -3 -3 -3 -4 -4 -4 -4 -5 -6 -6 -7 -7
8 8 7 6 4 3 1 1 0 -1 -1 -1 -2 -3 -4 -3 -4 -4 -4 -4 -4 -5 -5 -5 -6 -5 -3 -3 -3 -3 -3 -3 -4 -4 -4 -4 -4 -5 -5 -6 -6 -7 -8
7 6 5 4 3 2 1 1 0 -1 -1 -1 -2 -3 -4 -4 -3 -4 -4 -4 -4 -4 -4 -5 -6 -6 -4 -3 -3 -4 -7 -7 -8 -6 -4 -5 -4 -5 -6 -6 -7 -7 -8
7 5 5 4 3 1 1 0 -0 -1 -2 -2 -3 -3 -4 -3 -3 -3 -4 -4 -4 -4 -5 -5 -6 -5 -6 -4 -4 -4 -5 -7 -7 -8 -9 -6 -5 -6 -6 -7 -7 -8 -8
6 4 4 4 2 0 -0 -0 -1 -1 -2 -3 -3 -3 -4 -3 -3 -3 -4 -4 -4 -4 -5 -6 -6 -7 -6 -4 -4 -4 -4 -5 -6 -7 -7 -6 -6 -6 -7 -7 -8 -9 -9
6 4 4 3 1 -1 -1 -1 -2 -2 -2 -3 -3 -4 -4 -3 -3 -3 -4 -4 -4 -4 -5 -6 -6 -7 -6 -4 -4 -4 -4 -5 -6 -6 -6 -6 -7 -7 -8 -8 -9 -10 -10
5 4 4 2 0 -1 -1 -2 -2 -2 -3 -3 -3 -4 -4 -4 -4 -4 -4 -5 -5 -5 -5 -6 -6 -6 -5 -4 -4 -4 -4 -5 -6 -6 -6 -7 -8 -8 -9 -9 -9 -10 -11
5 3 2 1 -0 -1 -2 -2 0 -1 -2 -3 -4 -5 -4 -4 -5 -5 -5 -5 -5 -5 -6 -5 -5 -5 -5 -4 -4 -5 -5 -5 -6 -6 -7 -8 -10 -12 -13 -13 -13 -13 -14
5 3 1 -0 -1 -2 -2 -2 -0 -1 -2 -3 -4 -5 -5 -5 -6 -6 -5 -5 -5 -5 -5 -5 -5 -5 -5 -5 -5 -6 -6 -7 -7 -9 -11 -12 -12 -12 -12 -12 -13 -13 -14

GFSMW_850_temp_186.txt.gz
Temp
20 17 15 14 13 11 10 9 7 7 7 7 6 6 5 5 5 6 7 7 7 7 6 5 6 5 6 7 7 7 6 4 6 7 7 7 7 6 5 4 4 4 2
19 16 14 13 12 10 9 8 8 7 7 7 7 7 6 5 4 6 6 7 7 7 7 6 6 5 4 5 6 6 5 3 3 5 6 7 6 5 5 4 3 3 2
19 15 13 12 11 9 9 8 7 7 8 7 7 7 6 6 5 4 5 6 6 6 6 5 5 4 5 5 5 5 4 3 2 2 3 4 3 5 5 4 3 2 1
18 14 12 11 10 9 8 8 7 7 7 7 7 7 7 5 5 4 4 5 5 5 5 5 5 5 5 5 4 4 3 2 1 1 1 1 1 2 4 3 3 2 1
18 14 12 10 9 9 8 8 7 7 7 6 6 6 6 6 5 4 3 4 4 4 4 4 4 4 4 3 2 1 0 0 -1 -0 -0 1 -0 1 -0 1 0 2 1
18 14 12 11 9 9 8 8 7 7 6 6 5 5 6 4 3 3 2 1 1 3 3 3 3 3 2 0 -1 -1 -0 -1 -1 -2 -2 -1 -1 -2 -2 -2 -1 0 1
17 15 13 11 10 9 8 7 6 6 5 5 4 5 4 4 3 3 2 2 1 2 2 2 2 2 1 -1 -0 -0 -0 -1 -2 -2 -3 -3 -2 -3 -3 -3 -2 -1 1
16 15 13 11 10 9 7 6 6 6 4 4 4 4 4 4 3 2 2 1 0 1 1 1 1 1 1 -1 -1 -1 -2 -2 -2 -2 -3 -3 -3 -4 -4 -4 -3 -0 -0
15 14 13 11 10 9 7 6 6 5 4 3 3 3 3 3 2 2 2 1 1 1 1 1 1 1 0 -1 -1 -2 -2 -3 -2 -3 -3 -4 -4 -4 -4 -4 -4 -4 -3
14 13 12 11 10 9 7 6 6 5 4 3 3 3 3 3 3 3 2 1 0 -0 0 0 -0 -0 -1 -2 -2 -2 -3 -3 -4 -4 -3 -4 -4 -4 -4 -4 -4 -4 -4
13 12 11 11 10 8 7 6 5 5 3 2 2 2 3 3 3 2 1 1 0 0 -1 -1 -1 -1 -2 -2 -2 -3 -3 -4 -4 -4 -4 -4 -4 -4 -4 -4 -4 -4 -4
12 12 10 10 9 8 7 6 5 5 3 2 1 1 2 2 2 2 0 0 -0 -2 -2 -2 -2 -3 -3 -2 -3 -4 -4 -4 -4 -4 -3 -4 -4 -4 -5 -5 -5 -5 -4
13 12 10 9 9 8 7 6 5 4 3 2 1 1 1 1 1 0 -0 -1 -1 -2 -3 -3 -3 -3 -3 -3 -3 -3 -4 -4 -4 -3 -2 -2 -2 -2 -4 -4 -5 -5 -5
13 13 10 9 9 8 7 5 4 4 3 2 1 1 0 0 -1 -1 -1 -2 -2 -3 -3 -3 -2 -2 -2 -3 -5 -4 -4 -3 -3 -2 -2 -2 -2 -2 -3 -2 -3 -4 -5
13 13 12 10 8 7 6 5 4 3 2 1 0 -0 -0 -1 -2 -2 -2 -3 -3 -3 -3 -2 -2 -2 -3 -3 -4 -5 -5 -4 -4 -3 -2 -2 -3 -3 -3 -3 -3 -3 -3
12 12 12 11 10 7 6 4 3 2 1 0 -0 -1 -1 -2 -2 -2 -3 -3 -4 -3 -3 -2 -1 -1 -2 -2 -2 -2 -3 -3 -3 -3 -2 -2 -3 -3 -3 -3 -4 -3 -4
9 12 12 10 8 8 6 2 1 1 1 -0 -1 -1 -2 -2 -3 -3 -3 -4 -4 -3 -2 -1 -2 -2 -2 -2 -2 -2 -2 -2 -2 -2 -2 -2 -3 -3 -3 -3 -3 -4 -4
10 10 10 10 8 6 5 3 1 1 0 -0 -1 -1 -2 -3 -3 -4 -4 -5 -4 -3 -2 -2 -2 -2 -2 -2 -2 -2 -2 -2 -2 -2 -2 -2 -3 -3 -4 -4 -5 -5 -5
7 8 8 8 7 6 4 2 0 0 -0 -0 -1 -2 -2 -3 -4 -4 -4 -5 -4 -4 -2 -2 -2 -2 -2 -2 -3 -3 -3 -3 -3 -2 -2 -2 -3 -3 -4 -5 -5 -5 -5
8 7 7 6 6 5 3 2 0 0 -0 -1 -1 -2 -2 -3 -4 -5 -5 -4 -4 -4 -4 -4 -4 -4 -3 -3 -3 -3 -3 -5 -3 -3 -3 -3 -3 -4 -5 -5 -5 -6 -7
7 7 6 5 4 3 3 2 1 0 -0 -1 -1 -2 -2 -4 -4 -5 -4 -4 -4 -4 -4 -5 -5 -5 -3 -3 -3 -3 -3 -6 -7 -6 -4 -3 -4 -4 -5 -5 -5 -6 -7
7 6 5 5 4 3 2 2 1 0 -0 -1 -1 -2 -2 -3 -4 -5 -4 -4 -4 -4 -4 -5 -5 -6 -4 -3 -3 -3 -3 -4 -6 -6 -6 -4 -4 -4 -5 -5 -6 -7 -8
7 6 5 5 3 2 2 1 1 0 -1 -1 -1 -2 -3 -3 -4 -4 -3 -4 -4 -4 -4 -5 -6 -6 -6 -3 -3 -3 -4 -4 -5 -4 -4 -4 -5 -5 -6 -6 -7 -8 -8
6 6 5 5 3 1 0 0 0 -0 -1 -1 -2 -2 -3 -4 -3 -3 -3 -4 -4 -4 -4 -5 -5 -6 -6 -4 -3 -4 -4 -4 -4 -4 -5 -5 -5 -6 -6 -7 -8 -9 -9
7 5 4 4 3 1 -0 -1 -1 -1 -1 -2 -2 -3 -3 -4 -4 -3 -3 -4 -4 -4 -4 -5 -5 -5 -5 -3 -3 -4 -4 -4 -5 -5 -5 -6 -6 -7 -8 -9 -10 -11 -11
7 5 4 2 1 0 -1 -1 -1 -1 -2 -2 -3 -3 -4 -4 -4 -3 -4 -4 -4 -4 -5 -5 -5 -5 -5 -5 -5 -4 -5 -5 -5 -5 -6 -6 -7 -10 -11 -11 -12 -12 -12

GFSMW_850_temp_189.txt.gz
Temp
18 17 15 15 14 13 12 10 9 8 8 7 7 7 7 7 7 8 8 9 8 7 8 8 8 8 8 8 8 7 7 8 8 8 7 6 6 5 5 4 4 3 2
16 15 15 14 13 12 11 10 10 9 8 8 7 7 7 6 7 7 7 7 7 7 7 7 7 7 7 7 7 7 5 6 7 8 6 5 5 4 4 4 3 2 1
16 15 14 14 13 12 10 10 10 9 7 6 6 5 5 5 5 6 6 6 6 7 6 6 6 6 6 6 6 5 4 4 4 5 6 5 4 3 3 2 1 1 1
15 14 13 13 12 12 10 10 9 8 6 6 7 6 7 6 4 5 5 6 6 6 6 5 5 6 5 5 4 5 4 3 3 3 2 2 3 3 2 2 1 0 1
14 14 13 13 12 11 10 9 8 7 6 7 7 7 6 5 5 4 5 5 5 5 5 5 5 5 4 5 4 4 3 3 3 3 1 2 1 2 2 1 1 -0 -0
14 14 13 12 11 10 9 8 8 7 7 7 7 6 5 5 5 5 5 5 5 5 5 5 4 4 4 4 3 3 2 1 2 1 1 1 1 1 1 0 0 0 -1
13 12 12 11 10 9 9 8 8 7 7 6 5 5 5 6 6 5 5 5 4 4 4 4 4 4 3 3 2 2 1 -0 -1 -0 -0 0 1 -0 -0 -0 -0 -1 -1
13 12 12 11 10 9 8 8 7 7 6 6 5 5 5 5 5 5 4 3 4 3 3 3 3 3 2 2 1 0 0 -1 -2 -1 -2 -2 -3 -2 -2 -1 -1 -1 -2
14 12 11 11 10 9 8 8 8 6 6 6 5 5 4 4 4 5 3 3 3 3 4 3 3 2 1 0 -0 -0 -0 -1 -1 -2 -3 -3 -3 -3 -2 -2 -1 -1 -2
14 13 12 11 10 10 9 8 7 6 6 5 5 4 4 4 3 4 3 2 2 3 3 2 1 1 0 0 -0 -1 -2 -1 -1 -2 -3 -3 -3 -3 -3 -3 -2 -2 -2
12 12 11 11 10 10 9 8 7 6 5 5 4 3 3 3 3 3 3 3 3 3 2 2 1 1 0 0 -1 -2 -2 -2 -1 -2 -2 -3 -3 -3 -3 -3 -3 -3 -3
12 12 12 11 11 10 9 8 7 6 5 5 4 3 2 2 2 2 2 2 2 2 1 1 0 0 -0 -1 -1 -2 -2 -2 -1 -1 -2 -2 -3 -2 -3 -3 -3 -4 -4
12 12 12 11 11 10 9 8 7 6 5 4 4 3 2 3 2 2 1 1 1 1 -0 -0 -0 -0 -0 -1 -1 -2 -2 -2 -1 -1 -1 -2 -2 -2 -2 -2 -2 -3 -3
12 12 11 11 11 10 9 9 7 6 5 4 4 3 2 1 1 0 2 0 -0 -0 -1 -1 -1 -1 -1 -2 -1 -1 -2 -2 -2 -1 -2 -2 -2 -2 -2 -2 -2 -3 -3
12 11 12 12 11 9 9 8 6 5 5 4 3 3 2 1 0 -1 0 -1 -1 -1 -1 -1 -1 -2 -2 -2 -2 -2 -1 -1 -2 -2 -2 -2 -2 -2 -2 -2 -2 -3 -3
9 9 10 10 10 10 8 7 6 5 4 4 3 2 1 0 -1 -1 -1 -2 -2 -2 -2 -2 -2 -1 -2 -2 -2 -2 -1 -1 -1 -1 -2 -2 -2 -2 -2 -2 -3 -3 -3
6 7 7 6 8 8 7 7 5 4 4 3 2 2 1 -0 -1 -1 -2 -3 -3 -3 -3 -3 -2 -2 -2 -2 -1 -2 -2 -2 -2 -2 -2 -2 -2 -2 -2 -2 -3 -3 -4
4 5 5 6 8 8 7 6 5 4 3 2 2 1 -0 -1 -2 -2 -3 -3 -3 -3 -2 -2 -2 -2 -2 -2 -1 -2 -2 -2 -2 -3 -2 -3 -2 -2 -2 -2 -2 -3 -4
5 4 6 6 7 8 7 5 4 2 2 1 1 0 -0 -1 -2 -3 -3 -4 -4 -3 -2 -3 -3 -2 -2 -2 -2 -2 -2 -2 -3 -3 -3 -3 -3 -3 -2 -2 -3 -4 -5
6 6 6 6 6 6 5 5 3 1 1 1 0 -0 -1 -1 -2 -3 -4 -5 -4 -3 -4 -3 -3 -3 -2 -2 -2 -3 -3 -3 -3 -3 -3 -3 -3 -3 -2 -3 -4 -4 -5
7 6 6 6 5 5 5 4 3 2 1 1 0 -1 -1 -2 -3 -3 -4 -6 -6 -5 -5 -4 -4 -3 -3 -3 -3 -3 -3 -3 -3 -3 -3 -3 -3 -3 -3 -3 -5 -5 -6
7 6 6 6 5 4 4 3 2 2 1 0 -0 -1 -2 -2 -3 -4 -5 -5 -6 -5 -5 -5 -5 -4 -4 -4 -3 -3 -4 -4 -3 -3 -3 -3 -4 -4 -4 -4 -5 -6 -6
6 6 6 5 5 4 3 2 2 1 0 -0 -1 -1 -2 -2 -2 -3 -4 -5 -6 -4 -5 -5 -5 -5 -5 -4 -4 -4 -4 -5 -5 -4 -3 -4 -4 -4 -5 -5 -5 -6 -7
5 6 5 5 5 4 4 3 2 1 1 0 -1 -1 -2 -2 -2 -3 -4 -5 -5 -4 -4 -4 -5 -5 -5 -5 -5 -5 -5 -5 -5 -4 -4 -5 -5 -5 -5 -6 -6 -7 -8
6 6 5 5 4 4 3 2 2 1 0 0 -0 -1 -2 -2 -3 -4 -4 -5 -4 -4 -4 -4 -4 -5 -5 -4 -4 -5 -4 -4 -5 -5 -5 -5 -5 -5 -5 -6 -6 -7 -8
6 6 5 4 4 3 2 2 1 -0 -0 -1 -1 -1 -2 -3 -3 -4 -4 -5 -4 -4 -4 -4 -4 -4 -4 -5 -5 -5 -6 -6 -5 -5 -5 -4 -5 -5 -6 -7 -7 -9 -9